GW5980 Weather Reports


time (UTC)temp
F
wind
direction
speed
knots
gust
knots
rain 1hr
in
rain 24hr
in
rain mn
in
humidity
%
barometer
mb
20260503050619 61 34 0.0 3.5 0.00 0.00 0.00 47 1184.3
20260503050116 62 301 4.3 5.2 0.00 0.00 0.00 46 1184.5
20260503045614 62 303 2.6 4.3 0.00 0.00 0.00 45 1184.6
20260503045110 62 324 4.3 5.2 0.00 0.00 0.00 45 1184.7
20260503044607 62 337 3.5 5.2 0.00 0.00 0.00 45 1184.9
20260503044105 61 20 1.7 7.0 0.00 0.00 0.00 44 1184.7
20260503043600 62 316 2.6 9.6 0.02 0.00 0.00 47 1184.9
20260503043058 64 19 3.5 5.2 0.02 0.00 0.00 43 1185.2
20260503042554 64 36 7.8 10.4 0.00 0.00 0.00 36 1185.0
20260503042050 64 14 1.7 4.3 0.00 0.00 0.00 37 1185.0
20260503041547 64 33 4.3 6.1 0.00 0.00 0.00 38 1184.9
20260503041045 63 50 3.5 5.2 0.00 0.00 0.00 40 1184.6
20260503040542 63 9 4.3 7.8 0.00 0.00 0.00 40 1184.6
20260503040039 63 319 3.5 4.3 0.00 0.00 0.00 39 1184.5
20260503035536 64 332 1.7 5.2 0.00 0.00 0.00 38 1184.6
20260503035034 64 15 0.9 1.7 0.00 0.00 0.00 38 1184.4
20260503034531 64 332 0.9 3.5 0.00 0.00 0.00 38 1184.3
20260503034028 64 344 1.7 3.5 0.00 0.00 0.00 36 1184.0
20260503033525 65 9 0.9 3.5 0.00 0.00 0.00 36 1183.9
20260503033023 65 345 3.5 5.2 0.00 0.00 0.00 35 1184.0
20260503032521 65 328 4.3 5.2 0.00 0.00 0.00 38 1184.1
20260503032019 65 305 2.6 3.5 0.00 0.00 0.00 40 1183.9
20260503031517 65 306 5.2 5.2 0.00 0.00 0.00 41 1184.0
20260503031013 65 344 0.0 2.6 0.00 0.00 0.00 35 1184.3
20260503030509 65 17 1.7 3.5 0.00 0.00 0.00 35 1184.1
20260503030007 66 277 3.5 6.1 0.00 0.00 0.00 34 1183.8
20260503025503 66 176 0.0 4.3 0.00 0.00 0.00 34 1184.0
20260503025001 66 310 1.7 6.1 0.00 0.00 0.00 33 1183.9
20260503024457 66 146 2.6 3.5 0.00 0.00 0.00 34 1183.7
20260503023955 66 139 0.9 1.7 0.00 0.00 0.00 34 1183.7
20260503023451 66 15 0.9 2.6 0.00 0.00 0.00 34 1183.7
20260503022948 66 315 1.7 2.6 0.00 0.00 0.00 33 1183.5
20260503022443 67 330 2.6 2.6 0.00 0.00 0.00 32 1183.2
20260503021939 67 0 0.9 2.6 0.00 0.00 0.00 31 1183.2
20260503021436 67 349 1.7 3.5 0.00 0.00 0.00 31 1183.1
20260503020933 67 44 1.7 3.5 0.00 0.00 0.00 31 1183.1
20260503020431 68 17 2.6 3.5 0.00 0.00 0.00 30 1183.2
20260503015927 68 66 1.7 4.3 0.00 0.00 0.00 29 1183.2
20260503015424 68 40 1.7 3.5 0.00 0.00 0.00 30 1183.2
20260503014920 68 11 1.7 3.5 0.00 0.00 0.00 30 1183.2
20260503014417 68 13 2.6 3.5 0.00 0.00 0.00 30 1183.1
20260503013915 68 38 1.7 3.5 0.00 0.00 0.00 30 1183.1
20260503013412 68 335 0.9 2.6 0.00 0.00 0.00 30 1183.5
20260503012909 68 10 1.7 1.7 0.00 0.00 0.00 30 1183.2
20260503012407 68 319 1.7 2.6 0.00 0.00 0.00 30 1183.2
20260503011903 67 325 1.7 2.6 0.00 0.00 0.00 32 1183.2
20260503011400 67 61 3.5 3.5 0.00 0.00 0.00 32 1183.6
20260503010857 67 271 3.5 3.5 0.00 0.00 0.00 32 1183.8
20260503010354 67 284 2.6 2.6 0.00 0.00 0.00 32 1183.9
20260503005850 67 295 4.3 4.3 0.00 0.00 0.00 33 1183.8
20260503005348 66 259 3.5 8.7 0.00 0.00 0.00 34 1183.7
20260503004844 66 217 3.5 4.3 0.00 0.00 0.00 35 1184.1
20260503004342 66 240 2.6 6.1 0.00 0.00 0.00 35 1184.3
20260503003839 66 239 9.6 11.3 0.00 0.00 0.00 35 1184.0
20260503003336 66 272 7.0 13.0 0.00 0.00 0.00 34 1184.0
20260503002833 67 253 7.8 13.0 0.00 0.00 0.00 35 1183.8
20260503002330 68 263 7.8 12.2 0.00 0.00 0.00 32 1183.8
20260503001826 68 263 3.5 7.0 0.00 0.00 0.00 32 1183.8
20260503001322 68 280 4.3 5.2 0.00 0.00 0.00 30 1183.9
20260503000820 68 342 2.6 3.5 0.00 0.00 0.00 30 1183.6
20260503000319 67 324 5.2 6.1 0.00 0.00 0.00 32 1183.6
20260502235814 68 277 5.2 7.8 0.00 0.00 0.00 32 1183.5
20260502235312 67 326 4.3 8.7 0.00 0.00 0.00 32 1183.5
20260502234808 68 301 4.3 13.0 0.00 0.00 0.00 35 1183.5
20260502234305 68 319 3.5 9.6 0.00 0.00 0.00 34 1183.7
20260502233801 67 316 3.5 10.4 0.00 0.00 0.00 32 1183.8
20260502233258 67 136 0.9 5.2 0.00 0.00 0.00 30 1184.1
20260502232754 68 157 4.3 10.4 0.00 0.00 0.00 31 1184.6
20260502232251 69 114 7.8 13.0 0.00 0.00 0.00 31 1184.1
20260502231748 69 236 3.5 7.8 0.00 0.00 0.00 29 1184.1
20260502231246 69 187 5.2 14.8 0.00 0.00 0.00 28 1183.8
20260502230744 69 276 6.1 9.6 0.00 0.00 0.00 28 1183.8
20260502230242 69 324 1.7 5.2 0.00 0.00 0.00 28 1183.7
20260502225738 69 342 1.7 4.3 0.00 0.00 0.00 29 1183.6
20260502225235 69 341 2.6 5.2 0.00 0.00 0.00 30 1183.6
20260502224731 68 26 2.6 10.4 0.00 0.00 0.00 33 1183.7
20260502224228 68 0 6.1 14.8 0.00 0.00 0.00 35 1183.5
20260502223726 67 5 3.5 12.2 0.00 0.00 0.00 34 1183.9
20260502223224 67 75 2.6 16.5 0.00 0.00 0.00 34 1184.4
20260502222721 69 113 15.6 20.9 0.00 0.00 0.00 34 1184.6
20260502222218 72 159 22.6 28.7 0.00 0.00 0.00 27 1184.4
20260502221714 74 148 12.2 21.7 0.00 0.00 0.00 22 1183.6
20260502221210 75 142 2.6 3.5 0.00 0.00 0.00 19 1183.7
20260502220706 75 294 4.3 7.8 0.00 0.00 0.00 19 1183.3
20260502220203 75 256 4.3 5.2 0.00 0.00 0.00 19 1183.5
20260502215700 75 359 0.9 2.6 0.00 0.00 0.00 19 1183.5
20260502215157 76 215 2.6 7.8 0.00 0.00 0.00 19 1183.5
20260502214654 76 95 2.6 9.6 0.00 0.00 0.00 19 1183.9
20260502214151 76 72 6.1 7.8 0.00 0.00 0.00 19 1183.8
20260502213648 76 133 4.3 12.2 0.00 0.00 0.00 19 1183.7
20260502213146 77 151 7.8 13.0 0.00 0.00 0.00 19 1183.9
20260502212644 76 121 1.7 4.3 0.00 0.00 0.00 19 1183.7
20260502212142 76 140 3.5 4.3 0.00 0.00 0.00 19 1183.9
20260502211637 76 182 5.2 5.2 0.00 0.00 0.00 19 1183.9
20260502211135 76 94 1.7 3.5 0.00 0.00 0.00 19 1184.0
20260502210632 76 128 1.7 1.7 0.00 0.00 0.00 19 1184.4
20260502210129 76 221 1.7 2.6 0.00 0.00 0.00 19 1184.1
20260502205626 76 266 1.7 5.2 0.00 0.00 0.00 19 1184.3
20260502205123 76 318 0.0 3.5 0.00 0.00 0.00 19 1184.3
20260502204619 76 104 3.5 9.6 0.00 0.00 0.00 19 1184.1
20260502204117 75 98 2.6 5.2 0.00 0.00 0.00 19 1184.4
20260502203614 75 30 7.0 7.8 0.00 0.00 0.00 19 1184.3
20260502203112 75 46 5.2 8.7 0.00 0.00 0.00 19 1184.3
20260502202607 76 72 5.2 10.4 0.00 0.00 0.00 19 1184.1
20260502202105 75 116 5.2 7.8 0.00 0.00 0.00 19 1184.4
20260502201601 76 61 5.2 10.4 0.00 0.00 0.00 18 1184.4
20260502201058 75 45 7.0 8.7 0.00 0.00 0.00 18 1184.7
20260502200553 76 88 3.5 7.0 0.00 0.00 0.00 18 1184.8
20260502200052 76 85 7.0 7.8 0.00 0.00 0.00 18 1184.7
20260502195549 75 70 7.0 8.7 0.00 0.00 0.00 18 1184.8
20260502195045 75 52 7.8 11.3 0.00 0.00 0.00 18 1184.8
20260502194542 75 66 6.1 7.8 0.00 0.00 0.00 17 1184.9
20260502194038 74 7 1.7 8.7 0.00 0.00 0.00 18 1185.0
20260502193536 75 82 7.8 11.3 0.00 0.00 0.00 17 1184.9
20260502193032 74 174 1.7 7.0 0.00 0.00 0.00 17 1184.9
20260502192527 74 67 1.7 7.8 0.00 0.00 0.00 17 1185.0
20260502192026 74 49 6.1 6.1 0.00 0.00 0.00 18 1185.0
20260502191522 73 28 7.0 11.3 0.00 0.00 0.00 18 1185.2
20260502191020 74 67 6.1 11.3 0.00 0.00 0.00 17 1185.0
20260502190517 74 46 6.1 11.3 0.00 0.00 0.00 17 1185.4
20260502190014 73 53 5.2 10.4 0.00 0.00 0.00 17 1185.0
20260502185509 74 34 7.0 8.7 0.00 0.00 0.00 17 1185.2
20260502185006 73 354 5.2 9.6 0.00 0.00 0.00 18 1185.4
20260502184501 73 36 3.5 10.4 0.00 0.00 0.00 18 1185.4
20260502183958 74 22 5.2 8.7 0.00 0.00 0.00 17 1185.4
20260502183454 73 118 2.6 5.2 0.00 0.00 0.00 17 1185.4
20260502182949 72 155 0.0 3.5 0.00 0.00 0.00 18 1185.7
20260502182445 72 31 4.3 6.1 0.00 0.00 0.00 17 1185.6
20260502181941 73 52 4.3 7.0 0.00 0.00 0.00 17 1185.6
20260502181440 73 180 3.5 6.1 0.00 0.00 0.00 18 1185.7
20260502180938 72 120 4.3 4.3 0.00 0.00 0.00 18 1185.7
20260502180435 72 70 0.0 4.3 0.00 0.00 0.00 19 1185.7
20260502170354 65 288 0.0 2.6 0.00 0.00 0.00 21 1186.1
20260502164341 63 186 2.6 3.5 0.00 0.00 0.00 22 1186.3
20260502163837 62 148 0.9 2.6 0.00 0.00 0.00 22 1186.3
20260502163333 62 252 0.0 0.9 0.00 0.00 0.00 23 1186.2
20260502162831 62 42 0.0 2.6 0.00 0.00 0.00 23 1186.1
20260502162328 62 97 1.7 3.5 0.00 0.00 0.00 24 1186.2
20260502161825 61 52 0.0 1.7 0.00 0.00 0.00 23 1186.3
20260502161321 60 216 1.7 1.7 0.00 0.00 0.00 24 1186.3
20260502160819 60 170 0.0 2.6 0.00 0.00 0.00 25 1186.2
20260502160318 60 239 1.7 2.6 0.00 0.00 0.00 26 1186.0
20260502152247 56 191 0.9 2.6 0.00 0.00 0.00 29 1186.0
20260502151744 56 164 2.6 3.5 0.00 0.00 0.00 28 1186.1
20260502151241 55 129 0.9 1.7 0.00 0.00 0.00 28 1186.1
20260502150739 55 121 2.6 3.5 0.00 0.00 0.00 28 1186.1
20260502150235 54 205 1.7 1.7 0.00 0.00 0.00 28 1185.8
20260502130624 44 76 0.9 1.7 0.00 0.00 0.00 29 1185.4
20260502130122 44 180 0.0 0.9 0.00 0.00 0.00 28 1185.2
20260502123607 46 102 0.0 1.7 0.00 0.00 0.00 27 1185.0
20260502123103 46 56 1.7 1.7 0.00 0.00 0.00 28 1185.0
20260502122600 45 54 1.7 1.7 0.00 0.00 0.00 27 1185.2
20260502122057 45 72 0.9 1.7 0.00 0.00 0.00 28 1185.0
20260502121555 45 52 0.0 0.9 0.00 0.00 0.00 28 1185.0
20260502121052 45 29 0.0 0.9 0.00 0.00 0.00 27 1185.0
20260502120548 45 44 1.7 1.7 0.00 0.00 0.00 27 1185.3
20260502115543 45 46 1.7 1.7 0.00 0.00 0.00 27 1185.4
20260502115039 46 50 0.0 0.9 0.00 0.00 0.00 26 1185.0
20260502114535 46 30 0.0 1.7 0.00 0.00 0.00 26 1185.2
20260502114032 46 13 0.0 0.9 0.00 0.00 0.00 26 1185.2
20260502113530 46 41 0.0 0.9 0.00 0.00 0.00 26 1185.2
20260502113029 46 44 0.0 0.9 0.00 0.00 0.00 27 1185.3
20260502112526 46 29 1.7 2.6 0.00 0.00 0.00 27 1185.5
20260502112023 46 60 0.0 1.7 0.00 0.00 0.00 28 1185.4
20260502111521 46 40 0.0 1.7 0.00 0.00 0.00 27 1185.4
20260502111018 46 130 0.9 1.7 0.00 0.00 0.00 26 1185.3
20260502110515 46 118 1.7 1.7 0.00 0.00 0.00 25 1185.4
20260502110013 47 16 0.0 0.0 0.00 0.00 0.00 26 1185.3
20260502105510 46 29 0.9 0.9 0.00 0.00 0.00 27 1184.9
20260502105008 46 46 0.0 0.9 0.00 0.00 0.00 26 1185.2
20260502104504 46 45 0.0 2.6 0.00 0.00 0.00 25 1185.2
20260502104002 46 94 1.7 2.6 0.00 0.00 0.00 26 1185.2
20260502103459 46 56 1.7 2.6 0.00 0.00 0.00 26 1185.2
20260502102956 46 125 0.0 0.9 0.00 0.00 0.00 24 1185.2
20260502102453 46 139 0.0 0.9 0.00 0.00 0.00 24 1185.3
20260502101950 46 132 1.7 1.7 0.00 0.00 0.00 24 1185.0
20260502101448 47 111 0.9 1.7 0.00 0.00 0.00 24 1185.0
20260502100946 46 326 0.9 1.7 0.00 0.00 0.00 25 1185.0
20260502100445 46 289 0.0 0.0 0.00 0.00 0.00 26 1185.2
20260502091419 48 191 0.0 0.9 0.00 0.00 0.00 26 1185.2
20260502090916 49 151 0.9 1.7 0.00 0.00 0.00 24 1185.4
20260502090414 49 36 0.9 1.7 0.00 0.00 0.00 24 1185.2
20260502071308 53 145 0.9 1.7 0.00 0.00 0.00 21 1186.3
20260502070806 54 80 0.9 1.7 0.00 0.00 0.00 21 1186.1
20260502070304 54 17 1.7 2.6 0.00 0.00 0.00 21 1186.2
20260502065802 54 27 2.6 3.5 0.00 0.00 0.00 21 1186.2
20260502065300 54 53 0.0 1.7 0.00 0.00 0.00 21 1186.1
20260502064758 54 30 1.7 1.7 0.00 0.00 0.00 21 1186.4
20260502064255 54 32 1.7 2.6 0.00 0.00 0.00 21 1186.1
20260502063753 54 53 1.7 1.7 0.00 0.00 0.00 21 1186.1
20260502063251 55 48 0.0 0.9 0.00 0.00 0.00 20 1186.1
20260502062747 55 41 0.9 1.7 0.00 0.00 0.00 20 1186.3
20260502062245 55 36 0.0 1.7 0.00 0.00 0.00 19 1186.1
20260502061743 56 298 1.7 1.7 0.00 0.00 0.00 20 1186.2
20260502061241 56 255 0.9 0.9 0.00 0.00 0.00 20 1186.2
20260502060736 56 123 0.9 1.7 0.00 0.00 0.00 19 1186.1
20260502060232 57 152 0.0 0.9 0.00 0.00 0.00 19 1186.2
20260502055730 58 336 0.0 1.7 0.00 0.00 0.00 19 1186.1
20260502055228 58 0 0.0 1.7 0.00 0.00 0.00 18 1186.0
20260502054727 59 322 0.9 0.9 0.00 0.00 0.00 18 1186.2
20260502054224 59 349 0.9 0.9 0.00 0.00 0.00 19 1186.2
20260502053721 59 54 0.0 1.7 0.00 0.00 0.00 19 1186.2
20260502053218 60 293 0.0 1.7 0.00 0.00 0.00 18 1186.4
20260502052716 60 1 2.6 3.5 0.00 0.00 0.00 18 1186.3
20260502052214 59 5 1.7 2.6 0.00 0.00 0.00 18 1186.2
20260502051712 60 139 0.0 1.7 0.00 0.00 0.00 17 1186.0
20260502051210 61 11 0.0 1.7 0.00 0.00 0.00 17 1186.2